Theta_e
314 314 315 315 315 314 315 314 315 315 313 313 312 310 310 312 313 313 315 320 323 326 327 327 328 328 327 326 325 325 324 324 323 321 317 312 309 307 306 305 301 298 297 299
317 315 315 317 315 313 314 315 313 314 313 310 311 311 311 312 315 318 319 319 321 323 324 324 325 326 326 325 324 323 322 321 320 315 310 308 307 306 304 299 298 297 300 298
316 312 314 314 314 313 313 312 313 314 312 308 311 310 311 313 315 317 318 318 318 319 320 321 321 321 321 322 321 320 318 316 312 309 307 306 303 300 298 297 299 300 300 298
310 309 312 315 312 312 313 311 310 308 309 309 309 310 311 312 314 315 316 317 317 318 318 319 319 319 319 318 317 316 314 311 309 306 302 299 297 297 297 299 300 300 296 294
313 312 312 313 311 311 311 311 309 308 308 310 311 311 309 310 311 312 313 314 314 315 315 316 318 317 317 315 313 312 309 306 301 299 297 298 299 299 300 300 297 294 293 293
306 311 312 311 311 310 309 310 309 309 309 309 310 308 307 308 309 310 312 313 313 313 314 315 314 314 313 311 309 305 301 299 298 299 299 300 300 299 297 294 293 292 292 291
303 308 311 311 311 311 311 312 310 311 311 311 309 308 309 308 310 310 311 310 310 310 310 309 308 307 308 303 300 298 298 298 299 300 300 298 295 293 293 292 291 290 290 290
307 308 316 310 310 311 309 310 312 312 312 311 312 310 308 308 308 307 307 306 305 306 304 302 301 303 300 300 299 301 302 299 296 294 293 292 291 290 290 289 289 289 289 289
314 314 311 311 311 311 311 312 312 313 313 313 311 309 307 306 305 304 303 302 301 301 299 299 299 300 301 298 297 296 294 293 291 290 290 289 289 289 289 289 289 289 290 289
313 313 312 313 313 313 312 313 313 313 313 312 312 308 306 304 302 301 300 300 299 299 299 298 297 297 296 295 293 292 291 290 290 290 290 290 290 290 290 290 290 290 290 290
311 311 311 311 312 312 312 313 313 313 313 312 311 306 305 302 300 299 299 298 298 298 297 295 294 294 293 292 291 290 290 290 290 289 289 289 289 289 288 287 286 285 284 284
312 313 313 312 312 312 312 313 313 313 310 308 308 306 302 300 299 299 298 298 297 296 295 293 292 291 290 290 290 289 289 289 288 287 286 284 284 283 283 282 282 281 281 281
314 314 312 312 311 311 312 312 311 311 310 308 304 303 301 299 298 298 296 295 294 293 292 291 290 289 289 289 289 288 286 285 284 283 283 282 282 281 281 282 281 281 281 281
313 312 306 308 308 308 310 308 308 307 305 304 302 300 299 298 295 295 293 292 290 290 289 289 289 289 288 287 286 285 283 283 282 281 281 280 280 280 279 279 280 280 281 281
309 311 311 309 307 306 307 306 304 303 301 299 299 298 298 295 294 292 291 290 289 289 289 288 287 286 285 285 284 283 282 281 281 280 280 279 278 278 278 278 278 279 279 280
307 308 307 307 304 303 303 302 303 299 299 298 297 296 294 294 292 290 289 289 288 288 287 286 285 284 283 282 282 281 280 280 279 279 278 278 277 277 277 277 277 277 277 277
303 298 301 300 301 300 301 301 301 299 297 296 294 293 293 291 289 288 287 286 286 286 285 284 283 282 281 280 280 279 279 278 278 278 277 277 276 276 276 276 276 276 275 275
308 305 303 304 302 300 299 298 297 296 295 294 293 292 290 288 288 287 286 285 285 284 283 282 281 280 280 279 279 278 278 277 277 277 276 276 275 275 275 275 275 275 275 275
306 305 302 301 299 298 296 295 295 294 294 293 291 289 287 286 286 286 285 284 283 282 282 281 280 279 278 278 278 277 277 277 276 276 275 275 275 274 274 274 274 274 274 274
301 301 300 299 298 298 296 294 294 293 290 289 288 287 286 286 285 284 283 282 282 281 280 279 278 278 277 277 277 276 276 276 275 275 274 274 274 274 273 273 273 273 273 272
301 300 299 298 296 294 295 294 291 289 287 287 287 287 286 285 283 282 281 281 280 279 279 278 277 276 276 276 276 275 275 274 274 274 274 273 273 273 273 272 272 272 272 271
299 298 297 296 295 294 291 289 289 289 287 287 285 284 284 283 282 281 280 279 279 278 277 276 276 276 275 275 275 274 274 273 273 273 273 272 272 272 272 271 271 271 270 270
296 296 295 294 291 289 287 287 287 287 285 284 284 283 282 281 281 280 279 278 278 277 276 275 275 274 274 274 273 273 272 272 272 272 272 271 271 271 270 270 270 270 270 269
294 292 289 289 289 289 289 286 284 284 284 283 282 281 281 280 279 279 278 277 276 276 275 274 273 273 272 272 272 271 271 271 271 271 271 270 270 269 269 269 269 269 269 269
291 291 291 291 290 288 286 284 284 283 283 282 281 280 279 279 278 277 276 276 275 274 273 273 272 271 271 271 271 270 270 270 270 270 270 269 269 269 269 269 269 269 268 268
290 289 288 286 285 285 284 283 283 282 281 280 279 278 278 277 276 276 275 274 273 273 272 271 271 270 270 270 270 270 270 270 270 269 268 268 268 268 268 268 268 268 268 268
288 287 286 285 284 282 282 281 281 280 279 278 277 277 276 276 275 274 273 273 272 271 271 270 270 269 269 269 269 269 269 269 268 268 268 268 268 267 267 268 268 268 268 268
Wind_Speed
5 4 5 6 5 8 7 6 7 7 8 8 6 6 10 13 10 9 13 17 20 22 20 20 21 21 20 19 22 22 23 26 27 25 22 26 21 21 22 17 11 12 7 12
3 2 2 3 3 8 6 3 5 4 6 6 1 0 5 6 6 11 12 7 4 10 12 15 18 19 20 19 20 21 20 20 19 21 23 20 21 19 16 10 12 11 15 15
5 2 5 4 8 6 5 5 6 7 10 6 3 5 4 9 12 14 14 14 12 10 6 2 4 8 10 12 12 14 14 15 17 19 19 18 16 13 14 17 12 16 23 22
3 2 1 6 1 5 8 5 4 4 2 4 10 11 10 9 11 13 13 12 11 10 9 7 3 2 5 7 10 13 13 15 16 17 17 15 15 8 7 16 17 29 14 12
5 4 4 3 5 8 8 9 6 6 6 13 18 12 9 8 10 12 11 11 10 8 6 3 1 2 5 8 10 11 13 15 15 16 15 9 5 9 19 26 18 11 14 18
3 5 8 8 5 9 5 6 8 11 8 12 12 3 3 7 8 10 9 7 6 5 4 3 4 3 5 10 12 15 18 18 15 8 2 11 21 20 14 12 14 18 22 24
3 3 7 6 3 11 6 8 17 26 27 22 5 4 14 11 9 8 7 7 8 8 8 9 8 6 11 16 17 15 11 4 7 13 15 14 10 10 14 18 21 23 25 25
3 3 6 11 7 9 8 3 25 25 26 21 10 15 17 13 11 10 11 12 12 14 17 17 15 11 14 11 6 3 7 6 6 6 7 10 13 16 18 20 22 24 27 29
9 7 3 16 6 16 7 9 24 26 23 23 22 21 18 16 15 15 15 18 18 18 21 19 14 10 9 7 3 1 1 2 4 7 9 11 13 16 19 21 24 27 29 33
4 5 5 10 15 11 15 21 26 26 26 24 24 23 21 20 21 20 20 19 18 17 16 15 10 7 5 3 1 3 4 6 9 11 14 16 19 22 25 27 30 32 35 37
3 3 2 10 15 17 19 22 24 24 24 23 23 24 24 25 23 22 21 19 15 12 11 10 6 4 2 1 3 6 8 11 13 16 20 23 25 27 30 31 31 34 35 37
6 11 8 10 22 22 26 26 25 26 24 21 22 25 26 25 23 21 19 16 13 11 9 8 4 2 2 4 6 9 12 16 19 23 25 28 31 33 31 32 32 32 31 30
5 13 13 20 27 26 26 25 23 22 22 25 23 25 26 26 22 20 17 15 12 10 8 5 2 1 3 7 11 14 17 20 23 25 27 29 31 33 38 37 33 32 31 34
15 24 13 27 18 25 25 24 23 22 22 23 26 26 26 25 22 18 16 13 11 8 6 3 0 4 8 11 14 17 19 21 23 25 26 28 28 30 31 33 36 38 35 36
25 15 20 28 30 27 24 25 26 26 27 28 26 26 24 24 21 17 14 11 8 6 3 1 4 7 11 14 17 19 21 22 23 24 24 26 26 27 26 26 26 31 37 37
15 13 25 33 33 30 29 29 31 32 30 30 28 25 23 20 18 16 13 9 5 3 1 4 8 12 15 17 18 19 19 21 22 23 24 24 24 25 26 25 28 31 32 33
29 21 31 32 33 32 30 30 29 32 31 29 27 25 21 18 16 14 11 8 4 1 5 8 12 14 16 17 18 19 20 20 22 22 22 23 23 24 24 25 27 29 30 30
11 21 25 31 36 35 33 32 32 31 31 29 25 21 18 15 13 12 8 4 1 5 7 10 13 15 16 16 17 18 19 20 21 22 22 23 23 23 24 25 26 28 30 29
14 24 24 29 31 33 32 30 28 29 27 24 22 20 16 12 10 7 4 1 4 7 9 12 14 15 16 16 17 19 20 21 21 21 22 22 22 23 24 25 26 27 28 29
25 26 27 27 27 29 32 31 28 25 24 22 19 16 13 10 7 4 2 4 6 9 11 13 15 15 16 17 19 20 20 21 21 21 21 22 22 23 23 24 25 27 27 28
25 26 27 29 30 30 27 25 25 25 22 17 14 12 10 8 5 2 3 6 8 11 13 15 15 16 17 18 19 20 20 20 20 21 22 23 23 23 23 24 25 26 27 27
26 28 30 31 29 26 25 24 19 18 17 15 13 10 6 4 2 3 5 7 10 12 14 15 17 17 18 19 19 20 20 20 20 21 21 22 23 24 24 25 26 26 27 27
26 29 29 26 27 27 24 19 15 13 14 12 9 6 3 2 3 5 8 10 12 13 15 17 18 18 19 19 19 20 20 20 20 21 21 22 23 24 25 25 26 26 27 27
29 28 29 26 23 21 19 16 15 13 10 9 6 3 2 4 6 8 10 11 13 14 16 18 18 18 18 18 19 20 20 20 20 20 21 22 23 23 23 25 26 26 27 27
27 23 20 19 18 17 16 15 13 11 8 4 2 4 6 8 9 10 12 13 14 15 18 19 18 17 18 19 19 19 19 19 20 21 22 23 23 23 24 25 25 26 27 27
20 20 19 18 17 14 12 11 8 6 4 4 5 7 8 9 11 12 13 14 16 17 18 18 17 17 18 19 19 19 19 19 20 21 21 22 23 23 24 25 25 25 26 27
17 15 15 14 12 10 8 5 3 3 5 7 9 10 11 12 13 13 15 16 17 18 19 18 17 17 18 19 19 20 19 20 20 21 21 21 22 23 24 24 24 25 25 24
Wind_Direction
239 217 183 200 180 175 183 199 174 240 199 259 266 279 293 297 306 291 258 240 243 244 245 249 250 251 250 257 262 264 260 251 245 237 227 213 216 217 222 225 240 221 190 281
159 75 25 250 241 190 214 186 253 242 250 222 289 33 26 49 90 79 70 52 279 258 262 263 262 268 269 262 262 263 257 248 240 219 207 211 217 221 229 202 198 214 300 274
225 35 97 359 230 205 218 200 177 207 222 166 131 111 68 69 79 78 73 67 65 61 54 32 271 273 270 263 260 249 236 223 209 203 209 213 202 194 185 196 250 292 283 279
171 54 176 238 211 230 219 239 236 283 239 171 141 115 92 87 86 81 76 75 72 66 58 57 52 274 250 234 223 217 207 200 199 198 184 168 161 175 204 307 299 297 285 276
143 186 284 253 207 166 177 255 188 187 148 144 141 114 66 84 98 96 86 78 68 58 43 28 349 238 220 199 194 189 178 169 155 154 158 171 278 301 282 289 293 277 278 286
139 151 208 230 232 156 102 270 184 159 167 161 162 135 194 144 120 106 98 92 93 94 91 104 120 151 171 157 159 150 148 150 155 171 240 287 291 297 291 279 287 293 293 293
129 203 286 248 179 142 127 241 177 179 173 170 170 169 152 151 136 123 113 113 113 114 107 95 98 124 133 137 136 139 148 174 261 294 301 308 310 301 298 298 298 298 296 294
88 68 272 171 115 168 212 202 185 179 178 175 163 149 152 150 136 131 129 123 119 119 110 108 116 129 122 128 130 227 281 311 326 330 324 311 305 302 301 301 300 300 300 298
180 211 210 186 205 213 222 195 181 174 176 181 164 160 157 149 144 138 133 129 126 124 122 122 121 119 124 109 107 29 20 353 312 306 304 303 303 302 302 302 303 303 303 301
108 210 220 227 228 225 203 188 178 180 174 174 168 165 159 154 147 142 137 134 133 131 125 121 121 120 102 91 20 330 323 318 312 309 308 306 304 304 304 304 304 304 305 304
278 269 283 247 218 203 189 181 173 173 176 176 174 165 164 154 150 146 143 140 142 136 127 117 115 110 104 40 326 322 322 318 314 312 312 312 311 311 309 308 310 309 309 308
217 204 184 203 190 178 173 171 175 175 168 172 175 167 162 153 150 150 147 146 143 134 130 123 118 85 12 334 327 325 322 320 321 321 321 319 318 317 317 317 318 319 318 316
200 197 200 173 170 171 170 167 169 174 174 168 165 165 161 152 151 150 145 143 141 141 136 136 141 328 341 334 330 327 327 327 326 326 326 327 327 326 324 322 325 325 324 326
203 166 134 164 166 169 169 162 163 162 161 163 160 159 156 150 148 148 145 145 144 143 144 150 261 324 331 330 329 329 329 329 331 332 331 330 331 332 334 334 333 329 330 336
169 190 197 171 163 161 164 159 153 151 153 152 156 155 157 151 150 149 146 149 149 154 163 271 318 327 330 331 332 332 333 335 336 335 335 336 336 336 337 336 330 325 325 327
154 158 158 162 159 159 161 159 156 151 154 151 152 152 152 153 152 151 151 153 167 181 244 328 333 335 333 332 334 336 338 337 339 339 338 338 339 339 338 334 329 330 334 333
139 133 154 152 160 159 163 161 161 156 154 153 152 152 154 155 153 154 156 159 171 280 333 331 334 334 334 336 337 338 340 339 337 337 336 336 336 336 335 333 331 332 335 335
184 176 170 168 164 162 160 160 159 155 153 152 152 154 156 157 159 157 156 156 287 319 325 328 331 333 335 336 335 335 334 336 335 333 333 332 332 331 329 329 330 331 333 336
170 162 163 165 164 160 154 152 154 150 149 154 156 156 157 156 155 158 170 248 308 314 325 327 332 333 331 330 331 332 332 333 331 329 329 328 326 327 327 328 329 330 331 333
151 156 159 160 161 160 153 150 154 152 153 153 154 155 158 161 171 182 225 284 304 316 325 328 329 328 328 330 332 331 332 331 330 329 329 327 328 329 330 330 330 331 332 333
149 153 156 155 154 153 153 148 152 149 146 154 161 164 173 170 172 214 281 304 318 320 325 327 326 326 327 327 329 330 332 331 329 329 329 329 330 330 331 331 333 333 333 332
155 157 154 152 150 145 144 147 148 155 157 168 172 169 169 178 220 282 303 311 316 319 322 323 323 323 325 328 329 330 331 330 330 330 329 328 330 331 332 333 333 333 333 332
152 151 147 143 141 140 138 144 152 164 165 163 166 171 185 224 273 301 309 313 312 315 318 319 320 322 323 326 327 328 330 329 328 328 328 329 329 330 330 331 332 331 330 329
143 137 135 141 148 151 153 152 163 163 169 170 176 193 268 300 305 309 306 304 306 311 315 318 318 318 317 321 324 325 326 325 325 325 325 327 328 328 329 330 330 330 329 328
138 141 144 148 152 153 164 171 174 174 177 189 231 292 308 308 307 305 300 301 305 310 313 315 315 313 313 317 321 322 322 322 321 321 323 324 326 327 329 330 330 329 329 328
146 146 148 152 158 165 172 174 183 190 218 261 287 298 303 302 298 296 295 299 305 309 313 316 315 312 311 315 319 320 320 319 319 320 321 323 324 326 328 329 330 330 330 330
144 147 150 149 146 153 162 175 205 250 280 294 301 306 303 299 296 296 299 303 306 310 315 318 316 312 312 313 316 317 318 318 317 319 320 322 323 325 327 328 330 331 332 334